ENRA Weather Reports


Display with metric or nautical units.
time (UTC)temp
F
wind
direction
speed
MPH
gust
MPH
rain 1hr
in
rain 24hr
in
rain mn
in
humidity
%
barometer
mb
20260507123308 41 0 2.0 0.0 0.00 0.00 0.00 75 1016.0
20260507120307 37 350 8.0 0.0 0.00 0.00 0.00 86 1016.0
20260507113308 37 270 12.0 0.0 0.00 0.00 0.00 86 1016.0
20260507110307 44 240 6.0 0.0 0.00 0.00 0.00 56 1015.0
20260507103307 44 270 7.0 0.0 0.00 0.00 0.00 56 1015.0
20260507100308 44 360 5.0 0.0 0.00 0.00 0.00 52 1015.0
20260507093307 42 290 7.0 0.0 0.00 0.00 0.00 60 1015.0
20260507090308 42 0 3.0 0.0 0.00 0.00 0.00 65 1014.0
20260507083307 41 0 1.0 0.0 0.00 0.00 0.00 70 1014.0
20260507080308 41 0 0.0 0.0 0.00 0.00 0.00 70 1014.0
20260507073307 41 0 0.0 0.0 0.00 0.00 0.00 75 1014.0
20260507070307 39 0 0.0 0.0 0.00 0.00 0.00 86 1014.0
20260507063307 37 0 2.0 0.0 0.00 0.00 0.00 86 1014.0
20260507053307 35 0 2.0 0.0 0.00 0.00 0.00 93 1013.0
20260507050307 33 120 2.0 0.0 0.00 0.00 0.00 10 1013.0
20260507043308 33 0 1.0 0.0 0.00 0.00 0.00 10 1013.0
20260507040308 33 130 3.0 0.0 0.00 0.00 0.00 10 1013.0
20260507033307 33 130 2.0 0.0 0.00 0.00 0.00 10 1013.0
20260507030306 33 0 0.0 0.0 0.00 0.00 0.00 10 1013.0
20260507023307 33 0 0.0 0.0 0.00 0.00 0.00 10 1013.0
20260507020307 33 120 3.0 0.0 0.00 0.00 0.00 10 1013.0
20260507013307 33 130 2.0 0.0 0.00 0.00 0.00 10 1012.0
20260507010306 33 0 0.0 0.0 0.00 0.00 0.00 10 1012.0
20260507003307 33 0 2.0 0.0 0.00 0.00 0.00 10 1012.0
20260507000307 33 0 0.0 0.0 0.00 0.00 0.00 93 1012.0
20260506233307 33 0 2.0 0.0 0.00 0.00 0.00 93 1012.0
20260506230307 33 0 0.0 0.0 0.00 0.00 0.00 93 1012.0
20260506223307 33 0 2.0 0.0 0.00 0.00 0.00 93 1012.0
20260506220307 33 130 2.0 0.0 0.00 0.00 0.00 10 1012.0
20260506213307 33 0 0.0 0.0 0.00 0.00 0.00 10 1012.0
20260506210307 33 0 2.0 0.0 0.00 0.00 0.00 10 1011.0
20260506203306 33 0 2.0 0.0 0.00 0.00 0.00 10 1011.0
20260506200306 33 140 2.0 0.0 0.00 0.00 0.00 10 1011.0
20260506193307 33 130 3.0 0.0 0.00 0.00 0.00 10 1011.0
20260506190306 35 110 3.0 0.0 0.00 0.00 0.00 93 1011.0
20260506183307 35 0 2.0 0.0 0.00 0.00 0.00 93 1011.0
20260506180307 37 10 3.0 0.0 0.00 0.00 0.00 86 1011.0
20260506173308 37 210 3.0 0.0 0.00 0.00 0.00 86 1010.0
20260506170307 39 220 3.0 0.0 0.00 0.00 0.00 75 1010.0
20260506163307 41 190 3.0 0.0 0.00 0.00 0.00 70 1010.0
20260506160307 39 270 5.0 0.0 0.00 0.00 0.00 75 1010.0
20260506153307 41 250 6.0 0.0 0.00 0.00 0.00 75 1010.0
20260506150307 42 240 6.0 0.0 0.00 0.00 0.00 70 1010.0
20260506143307 42 250 6.0 0.0 0.00 0.00 0.00 75 1009.0
20260506140307 39 300 5.0 0.0 0.00 0.00 0.00 80 1009.0
20260506133307 39 240 10.0 0.0 0.00 0.00 0.00 80 1009.0
20260506130308 41 230 10.0 0.0 0.00 0.00 0.00 75 1009.0